Weather History for Lakeville, MN

Change the Weather History Date:

Sunday, March 2, 2014

  Actual Average Record
Temperature  
Mean Temperature -11 °F -  
Max Temperature -2 °F 33 °F 53 °F (1990)
Min Temperature -20 °F 16 °F -20 °F (2014)
Degree Days  
Heating Degree Days 76    
Moisture  
Dew Point -20 °F    
Average Humidity 61    
Maximum Humidity 77    
Minimum Humidity 46    
Precipitation  
Precipitation 0.00 in - - ()
Sea Level Pressure  
Sea Level Pressure 30.51 in    
Wind  
Wind Speed 9 mph (WNW)    
Max Wind Speed 14 mph    
Max Gust Speed 20 mph    
Visibility 10 miles    
Events      
Averages and records for this station are not official NWS values.
T = Trace of Precipitation, MM = Missing Value Source: NWS Daily Summary

Daily Weather History Graph

Daily Weather History Graph

Search for Another Location

Airport:

Trip Planner

Search our weather history database for the weather conditions in past years. The results will help you decide how hot, cold, wet, or windy it might be!

Date:

Astronomy

Mar. 02, 2014 Rise Set
Actual Time 6:48 AM CST 6:02 PM CST
Civil Twilight 6:19 AM CST 6:31 PM CST
Nautical Twilight 5:45 AM CST 7:05 PM CST
Astronomical Twilight 5:11 AM CST 7:39 PM CST
Moon 7:15 AM CST 8:05 PM CST
Length of Visible Light 12h 11m
Length of Day
11h 13m
Waxing Crescent, 3% of the Moon is Illuminated
Mar 2
Waxing Crescent
Mar 8
First Quarter
Mar 16
Full
Mar 23
Last Quarter
Mar 30
New

Hourly Weather History & Observations

Time (CST) Temp. Windchill Dew Point Humidity Pressure Visibility Wind Dir Wind Speed Gust Speed Precip Events Conditions
12:20 AM -7.6 °F -28.3 °F -18.4 °F 59% 30.49 in 10.0 mi NW 13.8 mph - N/A   Clear
12:39 AM -9.4 °F -28.9 °F -18.4 °F 65% 30.51 in 10.0 mi NW 11.5 mph - N/A   Clear
1:00 AM -9.4 °F -28.9 °F -20.2 °F 59% 30.51 in 10.0 mi NW 11.5 mph - N/A   Clear
1:19 AM -11.2 °F -27.8 °F -20.2 °F 64% 30.52 in 10.0 mi NW 8.1 mph - N/A   Clear
1:39 AM -11.2 °F -32.1 °F -20.2 °F 64% 30.52 in 10.0 mi NW 12.7 mph - N/A   Clear
2:00 AM -11.2 °F -29.0 °F -20.2 °F 64% 30.51 in 10.0 mi NW 9.2 mph - N/A   Clear
2:19 AM -11.2 °F -30.1 °F -20.2 °F 64% 30.51 in 10.0 mi NW 10.4 mph - N/A   Clear
2:40 AM -13.0 °F -31.3 °F -22.0 °F 64% 30.52 in 10.0 mi NW 9.2 mph - N/A   Clear
2:59 AM -13.0 °F -32.4 °F -23.8 °F 59% 30.52 in 10.0 mi NW 10.4 mph - N/A   Clear
3:20 AM -14.8 °F -34.6 °F -23.8 °F 64% 30.51 in 10.0 mi NW 10.4 mph - N/A   Clear
3:39 AM -14.8 °F -36.6 °F -23.8 °F 64% 30.51 in 10.0 mi NW 12.7 mph 19.6 mph N/A   Clear
4:00 AM -14.8 °F -32.2 °F -23.8 °F 64% 30.52 in 10.0 mi NW 8.1 mph - N/A   Clear
4:20 AM -16.6 °F -34.4 °F -25.6 °F 64% 30.51 in 10.0 mi NW 8.1 mph - N/A   Clear
4:39 AM -18.4 °F -37.9 °F -25.6 °F 70% 30.53 in 10.0 mi WNW 9.2 mph - N/A   Clear
5:00 AM -18.4 °F -31.4 °F -27.4 °F 63% 30.53 in 10.0 mi WNW 4.6 mph - N/A   Clear
5:19 AM -18.4 °F -31.4 °F -27.4 °F 63% 30.53 in 10.0 mi WNW 4.6 mph - N/A   Clear
5:39 AM -20.2 °F -37.3 °F -27.4 °F 69% 30.54 in 10.0 mi West 6.9 mph - N/A   Clear
6:00 AM -18.4 °F -33.4 °F -25.6 °F 70% 30.54 in 10.0 mi West 5.8 mph - N/A   Clear
6:19 AM -18.4 °F -28.9 °F -27.4 °F 63% 30.54 in 10.0 mi West 3.5 mph - N/A   Clear
6:40 AM -20.2 °F -35.5 °F -29.2 °F 63% 30.53 in 10.0 mi WNW 5.8 mph - N/A   Clear
7:00 AM -20.2 °F -40.1 °F -27.4 °F 69% 30.53 in 10.0 mi WNW 9.2 mph - N/A   Clear
7:19 AM -18.4 °F -37.9 °F -27.4 °F 63% 30.53 in 10.0 mi WNW 9.2 mph - N/A   Clear
7:40 AM -16.6 °F -34.4 °F -25.6 °F 64% 30.54 in 10.0 mi West 8.1 mph - N/A   Clear
7:59 AM -16.6 °F -32.9 °F -25.6 °F 64% 30.54 in 10.0 mi West 6.9 mph - N/A   Clear
8:20 AM -14.8 °F -33.5 °F -23.8 °F 64% 30.55 in 10.0 mi West 9.2 mph - N/A   Clear
8:40 AM -13.0 °F -30.0 °F -23.8 °F 59% 30.55 in 10.0 mi West 8.1 mph - N/A   Clear
8:59 AM -13.0 °F -31.3 °F -23.8 °F 59% 30.54 in 10.0 mi WNW 9.2 mph - N/A   Clear
9:20 AM -11.2 °F -29.0 °F -23.8 °F 54% 30.54 in 10.0 mi NW 9.2 mph - N/A   Clear
9:39 AM -11.2 °F -26.4 °F -23.8 °F 54% 30.53 in 10.0 mi NW 6.9 mph - N/A   Clear
10:00 AM -9.4 °F -25.6 °F -22.0 °F 54% 30.53 in 10.0 mi West 8.1 mph - N/A   Clear
10:19 AM -7.6 °F -24.6 °F -22.0 °F 50% 30.53 in 10.0 mi WNW 9.2 mph - N/A   Clear
10:39 AM -7.6 °F -23.4 °F -20.2 °F 54% 30.53 in 10.0 mi WNW 8.1 mph - N/A   Clear
11:00 AM -5.8 °F -22.4 °F -20.2 °F 50% 30.53 in 10.0 mi West 9.2 mph - N/A   Clear
11:19 AM -5.8 °F -21.2 °F -20.2 °F 50% 30.54 in 10.0 mi West 8.1 mph - N/A   Clear
11:40 AM -4.0 °F -19.0 °F -20.2 °F 46% 30.54 in 10.0 mi West 8.1 mph - N/A   Clear
11:59 AM -4.0 °F -17.8 °F -18.4 °F 50% 30.54 in 10.0 mi West 6.9 mph - N/A   Clear
12:19 PM -2.2 °F -15.6 °F -18.4 °F 46% 30.54 in 10.0 mi West 6.9 mph - N/A   Clear
12:40 PM -2.2 °F -19.9 °F -18.4 °F 46% 30.53 in 10.0 mi West 11.5 mph 16.1 mph N/A   Clear
12:59 PM -2.2 °F -21.5 °F -18.4 °F 46% 30.52 in 10.0 mi West 13.8 mph - N/A   Clear
1:20 PM -2.2 °F -18.9 °F -16.6 °F 50% 30.51 in 10.0 mi West 10.4 mph - N/A   Clear
1:39 PM -2.2 °F -19.9 °F -16.6 °F 50% 30.50 in 10.0 mi West 11.5 mph - N/A   Clear
1:59 PM -2.2 °F -19.9 °F -16.6 °F 50% 30.50 in 10.0 mi West 11.5 mph - N/A   Clear
2:19 PM -2.2 °F -20.7 °F -16.6 °F 50% 30.50 in 10.0 mi West 12.7 mph - N/A   Clear
2:39 PM -2.2 °F -20.7 °F -16.6 °F 50% 30.49 in 10.0 mi West 12.7 mph - N/A   Clear
3:00 PM -2.2 °F -20.7 °F -16.6 °F 50% 30.49 in 10.0 mi West 12.7 mph - N/A   Clear
3:19 PM -2.2 °F -16.8 °F -14.8 °F 55% 30.49 in 10.0 mi West 8.1 mph - N/A   Clear
3:39 PM -2.2 °F -19.9 °F -14.8 °F 55% 30.49 in 10.0 mi West 11.5 mph - N/A   Clear
4:00 PM -2.2 °F -18.9 °F -14.8 °F 55% 30.50 in 10.0 mi West 10.4 mph - N/A   Clear
4:19 PM -2.2 °F -19.9 °F -14.8 °F 55% 30.49 in 10.0 mi West 11.5 mph - N/A   Clear
4:40 PM -2.2 °F -18.9 °F -14.8 °F 55% 30.48 in 10.0 mi West 10.4 mph - N/A   Clear
4:59 PM -2.2 °F -18.0 °F -14.8 °F 55% 30.48 in 10.0 mi West 9.2 mph - N/A   Clear
5:19 PM -4.0 °F -19.0 °F -14.8 °F 60% 30.48 in 10.0 mi West 8.1 mph - N/A   Clear
5:40 PM -4.0 °F -16.3 °F -14.8 °F 60% 30.48 in 10.0 mi West 5.8 mph - N/A   Clear
5:59 PM -4.0 °F -17.8 °F -14.8 °F 60% 30.47 in 10.0 mi West 6.9 mph - N/A   Clear
6:20 PM -5.8 °F -19.9 °F -14.8 °F 65% 30.47 in 10.0 mi West 6.9 mph - N/A   Clear
6:39 PM -5.8 °F -19.9 °F -14.8 °F 65% 30.47 in 10.0 mi West 6.9 mph - N/A   Clear
7:00 PM -5.8 °F -18.4 °F -14.8 °F 65% 30.47 in 10.0 mi West 5.8 mph - N/A   Clear
7:19 PM -5.8 °F -19.9 °F -14.8 °F 65% 30.47 in 10.0 mi West 6.9 mph - N/A   Clear
7:40 PM -5.8 °F -21.2 °F -14.8 °F 65% 30.47 in 10.0 mi West 8.1 mph - N/A   Clear
8:00 PM -5.8 °F -19.9 °F -14.8 °F 65% 30.46 in 10.0 mi West 6.9 mph - N/A   Clear
8:19 PM -5.8 °F -21.2 °F -14.8 °F 65% 30.46 in 10.0 mi West 8.1 mph - N/A   Clear
8:39 PM -7.6 °F -20.6 °F -14.8 °F 71% 30.47 in 10.0 mi West 5.8 mph - N/A   Clear
8:59 PM -9.4 °F -24.3 °F -16.6 °F 71% 30.49 in 10.0 mi West 6.9 mph - N/A   Clear
9:20 PM -7.6 °F -22.1 °F -14.8 °F 71% 30.49 in 10.0 mi West 6.9 mph - N/A   Clear
9:39 PM -9.4 °F -22.7 °F -16.6 °F 71% 30.49 in 10.0 mi West 5.8 mph - N/A   Clear
10:00 PM -7.6 °F -18.8 °F -14.8 °F 71% 30.50 in 10.0 mi West 4.6 mph - N/A   Clear
10:19 PM -7.6 °F -20.6 °F -14.8 °F 71% 30.50 in 10.0 mi WNW 5.8 mph - N/A   Clear
10:40 PM -7.6 °F -20.6 °F -14.8 °F 71% 30.50 in 10.0 mi West 5.8 mph - N/A   Clear
10:59 PM -9.4 °F -24.3 °F -16.6 °F 71% 30.50 in 10.0 mi West 6.9 mph - N/A   Clear
11:20 PM -11.2 °F -27.8 °F -18.4 °F 70% 30.50 in 10.0 mi WNW 8.1 mph - N/A   Clear
11:39 PM -11.2 °F -27.8 °F -16.6 °F 77% 30.50 in 10.0 mi West 8.1 mph - N/A   Clear